This is the latest recevied weather packets stored in our database for station/object PD2BVG. If no packets are shown the sender has not sent any weather packets the latest 10 day(s).
| Time | Temp. | Humidity | Pressure | Rain* | Wind** | Luminosity | Snow |
|---|---|---|---|---|---|---|---|
| 1787398421 | 18.89° C | 69% | 1021.5 hPa | 0 mm | - | 758 W/m² | - |
| 1787398362 | 18.89° C | 69% | 1021.5 hPa | 0 mm | - | 758 W/m² | - |
| 1787398301 | 19.44° C | 68% | 1021.5 hPa | 0 mm | - | 746 W/m² | - |
| 1787398241 | 19.44° C | 68% | 1021.5 hPa | 0 mm | - | 746 W/m² | - |
| 1787398181 | 18.89° C | 68% | 1021.4 hPa | 0 mm | - | 746 W/m² | - |
| 1787398122 | 18.89° C | 68% | 1021.5 hPa | 0 mm | - | 746 W/m² | - |
| 1787398062 | 19.44° C | 68% | 1021.4 hPa | 0 mm | - | 735 W/m² | - |
| 1787398001 | 19.44° C | 68% | 1021.5 hPa | 0 mm | - | 735 W/m² | - |
| 1787397942 | 19.44° C | 68% | 1021.5 hPa | 0 mm | - | 735 W/m² | - |
| 1787397881 | 19.44° C | 68% | 1021.3 hPa | 0 mm | - | 406 W/m² | - |
| 1787397821 | 19.44° C | 68% | 1021.4 hPa | 0 mm | - | 742 W/m² | - |
| 1787397761 | 19.44° C | 68% | 1021.3 hPa | 0 mm | - | 739 W/m² | - |
| 1787397701 | 19.44° C | 68% | 1021.3 hPa | 0 mm | - | 739 W/m² | - |
| 1787397642 | 19.44° C | 68% | 1021.3 hPa | 0 mm | - | 732 W/m² | - |
| 1787397583 | 19.44° C | 68% | 1021.3 hPa | 0 mm | - | 732 W/m² | - |
| 1787397522 | 19.44° C | 68% | 1021.3 hPa | 0 mm | - | 635 W/m² | - |
| 1787397461 | 19.44° C | 68% | 1021.3 hPa | 0 mm | - | 635 W/m² | - |
| 1787397402 | 18.89° C | 68% | 1021.3 hPa | 0 mm | - | 162 W/m² | - |
| 1787397341 | 18.89° C | 68% | 1021.3 hPa | 0 mm | - | 162 W/m² | - |
| 1787397281 | 18.89° C | 67% | 1021.2 hPa | 0 mm | - | 106 W/m² | - |
| 1787397221 | 18.89° C | 67% | 1021.2 hPa | 0 mm | - | 102 W/m² | - |
| 1787397162 | 18.89° C | 67% | 1021.3 hPa | 0 mm | - | 100 W/m² | - |
| 1787397101 | 18.89° C | 66% | 1021.3 hPa | 0 mm | - | 99 W/m² | - |
| 1787397041 | 18.89° C | 66% | 1021.3 hPa | 0 mm | - | 99 W/m² | - |
| 1787396981 | 18.89° C | 66% | 1021.2 hPa | 0 mm | - | 99 W/m² | - |
* Rain latest hour (hover to see other rain measurements)
** Current wind speed in m/s (hover to see current wind gust speed)